STARLINK-31888, 59788

Orbit data source: Space-Track

STARLINK-31888, 59788 is a payload satellite owned by SpaceX/Seattle (US) in LEO that was launched on Sat, 18 May 2024 UTC via an FALCON 9 launch vehicle from the Air Force Eastern Test Range (AFETR). Payload-class satellites include a variety of spacecraft equipped with specific instruments for various scientific and technological missions. These include communications satellites like Starlink; space stations such as the ISS; scientific satellites like the Hubble; Earth observation satellites from companies like Planet Labs, Umbra, and HawkEye 360; GPS; miniature CubeSats for education and research; and military/defense satellites.

Loading next visibility...
Identifier
59788, 2024-093G
Orbit
LEO
Last TLE update
13 hours ago
Origin
Manufacturer
SpaceX/Seattle
Mission
Operational spacecraft
Bus & Motor
STARLINK V2M, Unknown motor
Mass
730 kg wet, ~700 kg dry
Launch date (UTC)
2024-05-18 (1 year ago)
Launch vehicle
FALCON 9
Launch site
Air Force Eastern Test Range (AFETR)
Object type
Payload
Rocket body
Debris
Shape & HBR
Unknown
Radar Cross Section
Large (>1 m²)

Expand to show TLE details & history

TLE from 13 hours ago
0 STARLINK-31888
1 59788U 24093G   25187.41381303 -.00000496  00000-0 -84893-5 0  9999
2 59788  43.0041 159.4754 0001082 281.2822  78.7908 15.27577954 65037
Epoch: 2025-07-06T09:55Z
TLE epoch observation values (Epoch: 2025-07-06T09:55:53.445Z)
Latitude
-0.00004°
Longitude
85.86482°
Altitude
482.687 km
Speed
7.626 km/s
True Right ascension
10h 37m 54s
True Declination
0° 00' 00"
Sunlit
Object was in daylight at epoch
Visualization orbit readout
Latitude
16.08961°
Longitude
100.79734°
Altitude
482.278 km
Speed
7.627 km/s
Apparent Right ascension
13h 57m 35s
Apparent Declination
-43° 38' 43"
Sunlit
Object is in daylight
Visualization observer readout
Local Sidereal Time
10:35:31
Azimuth
145.892° SSE
Elevation
-5.161°
Doppler factor
1
Orbital elements
Apogee altitude
485.742 km
Perigee altitude
484.257 km
Semi-major axis
6,863.137 km
Eccentricity
0.00011
Inclination
43.0041°
RAAN
159.4754°
Arg. of periapsis
281.2822°
True anomaly
Unknown
Mean anomaly
78.7908°
Eccentric anomaly
Unknown
Mean motion
3.81733 °/min
Orbital period
94.31 mins
BSTAR
-0.0000084893
Loading maneuver chart data...
Loading SW <> Apogee altitude chart data...
Loading historical data...
Loading historical data...
Loading historical data...
Loading historical data...
Loading historical data...
Loading historical data...
Loading historical data...

STARLINK-31888 Visibility forecast

Observer location: undefined°, undefined°

Span
Click to sort rows by Start time (UTC) header in descending order
Start Az.
Max El. time (UTC)
Max El. Az.
Max El.
End time (UTC)
End Az.
6 mins2025-07-07 01:51:22.391Z225.74° WSW2025-07-07 01:53:22.391Z180.755° SSW37.599°2025-07-07 01:57:22.391Z77.296° E
6 mins2025-07-07 03:30:22.391Z277.21° WNW2025-07-07 03:32:22.391Z323.348° NNW39.079°2025-07-07 03:36:22.391Z71.533° E
6 mins2025-07-07 05:09:22.391Z292.959° NW2025-07-07 05:12:22.391Z42.083° NE39.317°2025-07-07 05:15:22.391Z89.601° E
6 mins2025-07-07 06:48:22.391Z276.159° WNW2025-07-07 06:51:22.391Z179.854° S35.652°2025-07-07 06:54:22.391Z131.756° SE
|